Weather in Tiganovo

Russia / Bryansk Oblast     53°12′01″N   34°12′58″E
temp.,
°C
wind,
m/s
gust,
m/s
humid.,
%
clouds,
%
prec.,
mm/h
press.,
hPa
HPBL,
m
18 may, tue
tue1800:00+18sse41486100 1.0 1004465
03:00+16se41095100 1.9 1004244
06:00+16se269868 0.9 1004218
09:00+20ssw2382100 1.1 1004465
12:00+21se4675100 1.9 1003888
15:00+22sse3574100 3.6 1002978
18:00+19se3885100 2.1 1001358
21:00+14se389615 9.5 1003273
19 may, wed
wed1900:00+14ese499662 0.0 1002304
03:00+13se3897100 0.0 1003275
06:00+13se3996100 0.0 1003322
09:00+17sse6982100 0.1 1004916
12:00+18sse5775100 0.6 10051095
15:00+19sse5669100 2.1 10051112
18:00+17se3578100 0.3 1005422
21:00+14s3791100 0.4 1005296
20 may, thu
thu2000:00+13w1297100 1.5 100385
03:00+13w2398100 2.9 1002136
06:00+11w5998100 8.8 1001502
09:00+12sw61197100 18.0 1001607
12:00+12ssw5996100 8.8 1002542
15:00+12wsw4993100 11.0 1005570
18:00+12wsw4794100 0.2 1006423
21:00+11wsw4896100 0.6 1008419
21 may, fri
fri2100:00+10w499477 0.0 1010519
03:00+9sw4109385 0.0 1011397
06:00+8w4109385 0.0 1012268
09:00+13wnw347684 0.0 1014630
12:00+16nw235989 0.0 10141376
15:00+17w1151100 0.1 10151777
18:00+17w2366100 0.0 1015177
21:00+13s1172100 0.1 101611
22 may, sat
sat2200:00+10ssw2290100 0.0 101624
03:00+9nne118997 0.0 101614
06:00+9ne23949 0.0 1017106
09:00+15ne347516 0.0 1016587
12:00+18ne34562 0.0 10151574
15:00+20ene334814 0.0 10151868
18:00+19e356022 0.0 1015545
21:00+13se3791100 0.0 1016122